Gogerbank, United Kingdom

7:14 PM GMT on February 22, 2017 (GMT +0000)
Edinburgh Airport

Weather History for EGPH - August, 2014

Change the Weather History Date:

Wednesday, August 20, 2014

  Actual Average Record
Temperature  
Mean Temperature 51 °F -  
Max Temperature 60 °F 62 °F 75 °F (1997)
Min Temperature 42 °F 48 °F 42 °F (2014)
Degree Days  
Heating Degree Days 14    
Growing Degree Days 1 (Base 50)    
Moisture  
Dew Point 44 °F    
Average Humidity 78    
Maximum Humidity 100    
Minimum Humidity 51    
Precipitation  
Precipitation 0.00 in 0.09 in - ()
Sea Level Pressure  
Sea Level Pressure 29.98 in    
Wind  
Wind Speed 5 mph ()    
Max Wind Speed 13 mph    
Max Gust Speed -    
Visibility 6.0 miles    
Events Fog , Rain    
Averages and records for this station are not official NWS values.
T = Trace of Precipitation, MM = Missing Value Source: Averaged Metar Reports

Daily Weather History Graph

Daily Weather History Graph

Search for Another Location

Airport or City:

Trip Planner

Search our weather history database for the weather conditions in past years. The results will help you decide how hot, cold, wet, or windy it might be!

Date:

Astronomy

Aug. 20, 2014 Rise Set
Actual Time 5:53 AM BST 8:38 PM BST
Civil Twilight 5:11 AM BST 9:20 PM BST
Nautical Twilight 4:16 AM BST 10:14 PM BST
Astronomical Twilight 3:03 AM BST 11:25 PM BST
Moon 1:01 AM BST (8/20) 5:32 PM BST (8/20)
Length of Visible Light 16h 08m
Length of Day
14h 44m
Waning Crescent, 22% of the Moon is Illuminated
Aug 20
Waning Crescent
Aug 25
New
Sep 2
First Quarter
Sep 9
Full
Sep 16
Last Quarter

Hourly Weather History & Observations

Time (BST) Temp. Windchill Dew Point Humidity Pressure Visibility Wind Dir Wind Speed Gust Speed Precip Events Conditions
12:20 AM 50.0 °F - 48.2 °F 94% 29.98 in - SW 2.3 mph - N/A   Clear
12:50 AM 46.4 °F 44.3 °F 46.4 °F 100% 29.98 in - WSW 4.6 mph - N/A   Clear
1:20 AM 46.4 °F 45.2 °F 46.4 °F 100% 29.98 in - Variable 3.5 mph - N/A   Clear
1:50 AM 46.4 °F - 44.6 °F 93% 29.98 in 0.3 mi Variable 2.3 mph - N/A Fog Fog
2:20 AM 44.6 °F - 44.6 °F 100% 30.01 in - Variable 2.3 mph - N/A   Clear
2:50 AM 44.6 °F 42.2 °F 44.6 °F 100% 30.01 in - West 4.6 mph - N/A   Clear
3:20 AM 44.6 °F 43.1 °F 42.8 °F 93% 30.01 in - West 3.5 mph - N/A   Clear
3:50 AM 44.6 °F 42.2 °F 44.6 °F 100% 30.01 in 6.2 mi West 4.6 mph - N/A   Unknown
4:20 AM 46.4 °F 44.3 °F 44.6 °F 93% 30.01 in - West 4.6 mph - N/A   Clear
4:50 AM 44.6 °F 42.2 °F 42.8 °F 93% 30.01 in - West 4.6 mph - N/A   Clear
5:20 AM 44.6 °F 43.1 °F 42.8 °F 93% 30.01 in 6.2 mi WSW 3.5 mph - N/A   Scattered Clouds
5:50 AM 44.6 °F 43.1 °F 42.8 °F 93% 30.01 in 6.2 mi WSW 3.5 mph - N/A   Mostly Cloudy
6:20 AM 42.8 °F - 41.0 °F 93% 30.01 in 6.2 mi Variable 2.3 mph - N/A   Partly Cloudy
6:50 AM 42.8 °F - 42.8 °F 100% 30.01 in 6.2 mi NW 2.3 mph - N/A   Partly Cloudy
7:20 AM 46.4 °F 44.3 °F 44.6 °F 93% 30.01 in 6.2 mi WSW 4.6 mph - N/A   Partly Cloudy
7:50 AM 48.2 °F - 44.6 °F 87% 30.01 in 6.2 mi West 5.8 mph - N/A   Partly Cloudy
8:20 AM 48.2 °F - 46.4 °F 93% 30.01 in 6.2 mi West 4.6 mph - N/A   Scattered Clouds
8:50 AM 48.2 °F - 44.6 °F 87% 30.01 in 6.2 mi WSW 6.9 mph - N/A   Scattered Clouds
9:20 AM 50.0 °F - 44.6 °F 82% 30.01 in 6.2 mi West 4.6 mph - N/A   Scattered Clouds
9:50 AM 51.8 °F - 46.4 °F 82% 30.01 in 6.2 mi WSW 4.6 mph - N/A   Scattered Clouds
10:20 AM 53.6 °F - 46.4 °F 77% 30.01 in 6.2 mi WSW 5.8 mph - N/A   Scattered Clouds
10:50 AM 55.4 °F - 46.4 °F 72% 30.01 in 6.2 mi WSW 6.9 mph - N/A   Scattered Clouds
11:20 AM 57.2 °F - 44.6 °F 63% 29.98 in 6.2 mi West 5.8 mph - N/A   Scattered Clouds
11:50 AM 57.2 °F - 42.8 °F 59% 29.98 in 6.2 mi WNW 4.6 mph - N/A   Scattered Clouds
12:20 PM 57.2 °F - 42.8 °F 59% 29.98 in 6.2 mi West 6.9 mph - N/A   Scattered Clouds
12:50 PM 57.2 °F - 44.6 °F 63% 29.98 in 6.2 mi WSW 10.4 mph - N/A   Mostly Cloudy
1:20 PM 57.2 °F - 44.6 °F 63% 29.98 in 6.2 mi WSW 10.4 mph - N/A   Mostly Cloudy
1:50 PM 59.0 °F - 46.4 °F 63% 29.98 in 6.2 mi WSW 11.5 mph - N/A   Scattered Clouds
2:20 PM 59.0 °F - 44.6 °F 59% 29.98 in 6.2 mi West 9.2 mph - N/A   Scattered Clouds
2:50 PM 60.8 °F - 44.6 °F 55% 29.98 in 6.2 mi WSW 12.7 mph - N/A   Mostly Cloudy
3:20 PM 59.0 °F - 42.8 °F 55% 29.98 in 6.2 mi West 8.1 mph - N/A   Scattered Clouds
3:50 PM 59.0 °F - 42.8 °F 55% 29.95 in 6.2 mi West 8.1 mph - N/A   Mostly Cloudy
4:20 PM 59.0 °F - 41.0 °F 51% 29.95 in 6.2 mi NW 6.9 mph - N/A   Mostly Cloudy
4:50 PM 59.0 °F - 41.0 °F 51% 29.95 in - WNW 9.2 mph - N/A   Clear
5:20 PM 59.0 °F - 42.8 °F 55% 29.95 in 6.2 mi West 11.5 mph - N/A   Mostly Cloudy
5:50 PM 59.0 °F - 44.6 °F 59% 29.95 in 6.2 mi WNW 10.4 mph - N/A   Scattered Clouds
6:20 PM 57.2 °F - 44.6 °F 63% 29.95 in 6.2 mi West 10.4 mph - N/A   Scattered Clouds
6:50 PM 57.2 °F - 44.6 °F 63% 29.95 in 6.2 mi West 8.1 mph - N/A   Partly Cloudy
7:20 PM 55.4 °F - 44.6 °F 67% 29.95 in - West 11.5 mph - N/A   Clear
7:50 PM 53.6 °F - 44.6 °F 72% 29.95 in - West 9.2 mph - N/A   Clear
8:20 PM 53.6 °F - 44.6 °F 72% 29.95 in 6.2 mi West 10.4 mph - N/A Rain Light Rain
8:50 PM 51.8 °F - 44.6 °F 76% 29.95 in 6.2 mi West 9.2 mph - N/A   Unknown
9:20 PM 51.8 °F - 44.6 °F 76% 29.95 in - West 10.4 mph - N/A   Clear
10:20 PM 51.8 °F - 46.4 °F 82% 29.95 in 6.2 mi West 9.2 mph - N/A Rain Light Rain
10:50 PM 50.0 °F - 46.4 °F 87% 29.92 in 6.2 mi WSW 10.4 mph - N/A Rain Light Rain
11:20 PM 50.0 °F - 46.4 °F 87% 29.92 in 6.2 mi WSW 11.5 mph - N/A Rain Light Rain
11:50 PM 50.0 °F - 46.4 °F 87% 29.92 in 6.2 mi WSW 10.4 mph - N/A   Unknown